FENGYUN 1C DEB

Satellite information

Favourite Embed

Satellite Type and Status

DEBRISIN ORBIT

Key statistics

Satellite FENGYUN 1C DEB at a glance.

Uptime

9715

Days in orbit

Revolutions

≈ 14.2

Per day

Orbit

SSO

Sun Synchronous Orbit

Inclination

99.1

Latest

Satellite identification and parameters

Extended collection of information and parameters for FENGYUN 1C DEB.

Object identification

Identified? True

Debris? True

Object name: FENGYUN 1C DEB

International designator: 1999-025VH

Object number (NORAD): 30200

Object ID (CCSDS): 30200

Country: PEOPLES REPUBLIC OF CHINA (PRC)

Current information (Y/N): Y

RCS size: SMALL

Orbital parameters

Period: 101.246 minutes

Inclination: 99.1128 deg

SMA: 7195.8 km

Apoapsis: 923.867 km

Periapsis: 711.463 km

RAAN: 181.7626 deg

Eccentricy: 0.01475889

Argument of periapsis: 98.5329 deg

Mean anomaly: 263.2604 deg

Mean motion: 14.22276764 rev/day

Mean motion (dot): 0.00000463 rev/day2

B* drag term: 0.0002053668 1/REarth

Two-line elements (TLE)

Creation date: Dec. 13, 2025, 4:32 a.m.

Reference frame: TEME

Reference center: EARTH

Epoch: Dec. 12, 2025, 11:58 p.m. UTC

TLE line 0: 0 FENGYUN 1C DEB

TLE line 1: 1 30200U 99025VH 25346.99915694 .00000463 00000-0 20537-3 0 9995

TLE line 2: 2 30200 99.1128 181.7626 0147589 98.5329 263.2604 14.22276764979861

Live tracking on map

Real-time ground track for satellite FENGYUN 1C DEB.

In-orbit conjunctions

A list of the most updated potential collisions computed for object FENGYUN 1C DEB.

Target Orbit TCA Probability of collision Miss distance Type
NOAA 17 DEB SSO 2025-06-14 16:01:27 0.0002034231 98.0 (m) DEBRIS
COSMOS 1275 DEB LEO 2024-10-15 10:22:09 0.0002064548 104.0 (m) DEBRIS

Associated space launch

Chinese polar orbiting meteorological satellite

FENGYUN 1C DEB was lifted into orbit during the mission ‘Long March 4B | Feng Yun 1C’, on board a Long March 4B space rocket.

The launch took place on May 10, 1999, 1:33 a.m. from Launch Complex 7.

For more information about the launch, click the button.

Launch to space Long March 4B | Feng Yun 1C
Long March 4B | Feng Yun 1C

Agency: N/A

Status: Launch Successful

Launch date: May 10, 1999, 1:33 a.m. UTC

Rocket: Long March 4B

Launch pad: Launch Complex 7

Location: Taiyuan Satellite Launch Center, People's Republic of China

...

Latest news about this satellite

There are no fresh news available about this satellite. Check back as we update our databases every day.


Newsletter sign-up

Weekly statistics, charts and insights to help you stay on top of the space industry.